Location: Presov
(49.0000°N, 21.2500°E)
Time: 21:20:12
(UTC+02:00)

ISS - Pass Details

Date: 21 May 2025
Orbit: 415 x 416 km, 51.6° (Epoch: 16 June)

Event Time Altitude Azimuth Distance (km) Brightness Sun altitude
Rises 22:16:28 0° 290° (WNW) 2,362 0.9 -14.4°
Reaches altitude 10° 22:18:37 10° 283° (WNW) 1,495 -0.3 -14.6°
Maximum altitude 22:21:49 43° 211° (SSW) 601 -3.2 -14.8°
Enters shadow 22:22:47 33° 167° (SSE) 729 -3.1 -14.9°
